[[{"header":{"parameterUnit":"m.s-1","parameterCategory":1,"la1":30.2992,"la2":30.254,"lo1":-89.0895,"lo2":-89.0443,"dy":0.0025,"dx":0.0025,"nx":19,"ny":19,"refTime":"2026-05-06T21:00:00:Z","depth":0,"parameterNumber":2,"parameterNumberName":"U-component_of_WINDS"},"data":[0,0,0,-5.8421,-5.8423,-5.8504,-5.8504,-5.8649,-5.865,0,0,0,0,0,0,0,0,0,0,0,-5.8421,-5.8423,-5.842,-5.8423,-5.8504,-5.8504,-5.8648,-5.865,0,0,0,0,0,0,0,0,0,0,0,-5.8421,-5.8423,-5.8425,-5.8424,-5.8504,-5.8504,-5.8648,-5.8572,0,0,0,0,0,0,0,0,0,0,-5.8486,-5.8511,-5.8422,-5.8425,-5.8424,-5.8504,-5.8504,-5.8568,-5.8577,-5.8629,0,-5.8683,0,-5.8669,-5.8662,-5.8663,0,0,0,-5.8405,-5.8504,-5.8504,-5.8425,-5.8425,-5.8504,-5.8462,-5.8572,-5.8583,-5.8642,-5.8684,-5.8688,-5.8671,-5.8664,-5.8665,-5.9028,-5.9031,0,0,-5.84,-5.8449,-5.8497,-5.8512,-5.8502,-5.846,-5.8465,-5.8578,-5.8628,-5.8685,-5.8691,-5.8674,-5.8665,-5.8666,-5.9026,-5.9029,0,0,0,-5.84,-5.8447,-5.8443,-5.8507,-5.8518,-5.8463,-5.8469,-5.8623,-5.8617,-5.8692,-5.8676,-5.8666,-5.8668,-5.9023,-5.9027,-5.9201,0,0,0,-5.8396,-5.8447,-5.8442,-5.8473,-5.8517,-5.8572,-5.8512,-5.8609,-5.862,-5.8675,-5.8666,-5.867,-5.902,-5.9025,-5.919,-5.9274,0,0,0,-5.8408,-5.8448,-5.8468,-5.8475,-5.8512,-5.8568,-5.8569,-5.861,-5.8611,-5.8663,-5.867,-5.9018,-5.9024,-5.918,-5.9258,-5.9383,0,0,0,-5.8434,-5.8622,-5.8472,-5.8675,-5.8512,-5.8676,-5.8567,-5.8687,-5.8753,-5.8667,-5.902,-5.9026,-5.9177,-5.9248,-5.9373,-5.9496,-5.9553,0,0,-5.8698,-5.8655,-5.8771,-5.8639,-5.8842,-5.8659,-5.8888,-5.8902,-5.8862,-5.8975,-5.8983,-5.9193,-5.9257,-5.9381,-5.9854,-5.9899,0,0,0,-5.8871,-5.8955,-5.8998,-5.9063,-5.9078,-5.9097,-5.907,-5.9075,-5.9168,-5.893,-5.9271,-5.9308,-5.9379,-5.9435,-5.9474,-5.953,-5.9055,-5.9054,-5.9054,-5.9315,-5.9254,-5.9441,-5.939,-5.9454,-5.9424,-5.947,-5.9472,-5.9392,-5.9474,-5.9506,-5.9801,-5.9869,-5.9898,-5.9958,-5.9568,-5.9569,-5.9569,-5.957,-5.9696,-5.9804,-5.9693,-5.9834,-5.9769,-5.9887,-5.9866,-5.9805,-5.9905,-5.9772,-5.9831,-5.9689,-5.9949,-5.9998,-5.9582,-5.958,-5.9578,-5.9577,-5.9576,-5.9978,-6.0019,-6.0022,-6.0108,-6.0182,-6.0124,-6.0225,-6.0162,-6.0104,-6.0163,-6.0189,-6.0186,-6.0174,-6.018,-6.0181,-6.0182,-6.0183,-6.0184,-6.0185,-6.0269,-6.0267,-6.036,-6.0392,-6.0424,-6.046,-6.0433,-6.0463,-6.0481,-6.0427,-6.0427,-6.0338,-5.9987,-5.9899,-6.02,-6.0197,-6.0195,-6.0194,-6.0193,-6.0675,-6.0573,-6.0717,-6.075,-6.0781,-6.0858,-6.0777,-6.0845,-6.0861,-6.0913,-6.0812,-6.0563,-6.0515,-6.0484,-6.041,-6.0826,-6.0826,-6.0826,-6.0826,-6.0912,-6.0881,-6.1013,-6.107,-6.1119,-6.106,-6.1223,-6.1205,-6.1169,-6.1175,-6.1106,-6.1004,-6.0976,-6.0944,-6.0903,-6.0833,-6.1347,-6.1347,-6.1348,-6.1157,-6.1128,-6.1279,-6.1243,-6.1263,-6.1282,-6.1434,-6.1503,-6.1442,-6.1368,-6.1178,-6.1156,-6.0991,-6.094,-6.086,-6.0798,-6.0669,0,0]},{"header":{"parameterUnit":"m.s-1","parameterCategory":1,"la1":30.2992,"la2":30.254,"lo1":-89.0895,"lo2":-89.0443,"dy":0.0025,"dx":0.0025,"nx":19,"ny":19,"refTime":"2026-05-06T21:00:00:Z","depth":0,"parameterNumber":3,"parameterNumberName":"V-component_of_WINDS"},"data":[0,0,0,-0.5196,-0.5195,-0.5122,-0.5121,-0.503,-0.5029,0,0,0,0,0,0,0,0,0,0,0,-0.522,-0.522,-0.5196,-0.5195,-0.5122,-0.5121,-0.503,-0.5029,0,0,0,0,0,0,0,0,0,0,0,-0.5221,-0.522,-0.5219,-0.5194,-0.5122,-0.5121,-0.503,-0.5084,0,0,0,0,0,0,0,0,0,0,-0.5155,-0.518,-0.522,-0.5219,-0.5194,-0.5122,-0.5121,-0.5087,-0.5081,-0.5064,0,-0.5051,0,-0.5038,-0.5023,-0.5023,0,0,0,-0.5192,-0.5185,-0.5163,-0.5219,-0.5193,-0.5122,-0.5154,-0.5083,-0.5077,-0.5056,-0.505,-0.5046,-0.5037,-0.5022,-0.5022,-0.4932,-0.4932,0,0,-0.5196,-0.5209,-0.5168,-0.5159,-0.5172,-0.5156,-0.5152,-0.5079,-0.5073,-0.5049,-0.5044,-0.5035,-0.5022,-0.5021,-0.4933,-0.4932,0,0,0,-0.521,-0.5212,-0.5191,-0.5163,-0.5149,-0.5154,-0.5149,-0.5076,-0.5068,-0.5043,-0.5034,-0.5021,-0.502,-0.4933,-0.4933,-0.4927,0,0,0,-0.5212,-0.5219,-0.5193,-0.52,-0.5151,-0.5112,-0.5147,-0.5073,-0.5065,-0.5035,-0.5021,-0.5019,-0.4933,-0.4933,-0.4928,-0.4923,0,0,0,-0.5224,-0.5221,-0.5211,-0.5201,-0.517,-0.5113,-0.5101,-0.5071,-0.506,-0.5023,-0.5019,-0.4934,-0.4933,-0.4929,-0.4924,-0.49,0,0,0,-0.5241,-0.5209,-0.5211,-0.5172,-0.517,-0.5111,-0.5101,-0.5057,-0.5025,-0.5021,-0.4933,-0.4933,-0.4929,-0.4925,-0.4901,-0.4882,-0.4876,0,0,-0.5207,-0.5206,-0.5181,-0.5181,-0.5124,-0.5121,-0.5063,-0.5022,-0.5008,-0.4958,-0.4955,-0.4928,-0.4924,-0.4901,-0.4838,-0.4833,0,0,0,-0.5174,-0.5157,-0.5139,-0.5109,-0.5077,-0.5047,-0.5014,-0.4998,-0.4955,-0.4985,-0.4914,-0.4911,-0.4897,-0.4887,-0.4882,-0.4868,-0.4929,-0.4929,-0.4929,-0.5144,-0.5126,-0.5083,-0.5056,-0.5026,-0.4991,-0.4964,-0.4937,-0.4929,-0.4912,-0.4897,-0.4861,-0.485,-0.4846,-0.4832,-0.4886,-0.4886,-0.4886,-0.4886,-0.5091,-0.5063,-0.505,-0.5004,-0.4984,-0.4945,-0.4908,-0.4903,-0.4862,-0.4872,-0.4858,-0.4869,-0.4841,-0.4827,-0.4886,-0.4886,-0.4886,-0.4886,-0.4886,-0.5068,-0.5051,-0.5032,-0.4984,-0.4948,-0.4921,-0.4881,-0.4865,-0.485,-0.4837,-0.4817,-0.4817,-0.4813,-0.4829,-0.4829,-0.4828,-0.4828,-0.4828,-0.4828,-0.5052,-0.503,-0.4999,-0.496,-0.4936,-0.4903,-0.4864,-0.484,-0.4809,-0.48,-0.48,-0.4791,-0.4843,-0.4855,-0.4826,-0.4826,-0.4827,-0.4827,-0.4827,-0.5002,-0.501,-0.4962,-0.4938,-0.4888,-0.4852,-0.4832,-0.4783,-0.4761,-0.4741,-0.4734,-0.4776,-0.4773,-0.4776,-0.4786,-0.474,-0.474,-0.474,-0.474,-0.4982,-0.4978,-0.4923,-0.4886,-0.4847,-0.4822,-0.4765,-0.4733,-0.4702,-0.4686,-0.4691,-0.4703,-0.4707,-0.4701,-0.4706,-0.4714,-0.4652,-0.4652,-0.4652,-0.4949,-0.494,-0.4896,-0.4865,-0.4824,-0.4788,-0.4733,-0.4688,-0.4655,-0.4648,-0.4673,-0.4677,-0.4696,-0.4703,-0.4697,-0.4705,-0.4721,0,0]}]]